Location: Exeidioux
(45.6312°N, 1.6819°E)
Time: 14:59:11
(UTC+00:00)

Cosmos 1602 - Pass Details

Date: 03 March 2021
Orbit: 512 x 534 km, 82.5° (Epoch: 15 April)

Event Time Altitude Azimuth Distance (km) Brightness Sun altitude
Rises 18:39:02 0° 192° (SSW) 2,648 7.4 -10.6°
Reaches altitude 10° 18:41:10 10° 194° (SSW) 1,767 6.6 -11.0°
Maximum altitude 18:45:02 74° 280° (W) 558 4.0 -11.6°
Drops below altitude 10° 18:48:59 10° 5° (N) 1,794 6.4 -12.3°
Sets 18:51:09 0° 8° (N) 2,692 7.3 -12.7°
